Year,Month,Day,Hour,Minute,Value (Times are PST for windspeed in km/hr)
2022,09,16,00,00,0.00
2022,09,16,00,01,0.90
2022,09,16,00,02,1.80
2022,09,16,00,03,3.00
2022,09,16,00,04,6.50
2022,09,16,00,05,7.60
2022,09,16,00,06,7.00
2022,09,16,00,07,7.20
2022,09,16,00,08,5.20
2022,09,16,00,09,5.80
2022,09,16,00,10,5.10
2022,09,16,00,11,0.30
2022,09,16,00,12,3.70
2022,09,16,00,13,3.10
2022,09,16,00,14,5.40
2022,09,16,00,15,2.30
2022,09,16,00,16,0.00
2022,09,16,00,17,0.20
2022,09,16,00,18,1.50
2022,09,16,00,19,0.00
2022,09,16,00,20,0.00
2022,09,16,00,21,0.00
2022,09,16,00,22,0.00
2022,09,16,00,23,0.80
2022,09,16,00,24,0.00
2022,09,16,00,25,3.80
2022,09,16,00,26,4.70
2022,09,16,00,27,4.80
2022,09,16,00,28,5.00
2022,09,16,00,29,4.10
2022,09,16,00,30,0.00
2022,09,16,00,31,3.40
2022,09,16,00,32,4.80
2022,09,16,00,33,0.10
2022,09,16,00,34,2.10
2022,09,16,00,35,0.00
2022,09,16,00,36,2.90
2022,09,16,00,37,2.60
2022,09,16,00,38,1.10
2022,09,16,00,39,0.00
2022,09,16,00,40,0.00
2022,09,16,00,41,0.00
2022,09,16,00,42,3.20
2022,09,16,00,43,3.90
2022,09,16,00,44,1.10
2022,09,16,00,45,0.10
2022,09,16,00,46,2.70
2022,09,16,00,47,4.80
2022,09,16,00,48,0.50
2022,09,16,00,49,0.00
2022,09,16,00,50,0.80
2022,09,16,00,51,6.20
2022,09,16,00,52,5.60
2022,09,16,00,53,4.10
2022,09,16,00,54,5.20
2022,09,16,00,55,2.50
2022,09,16,00,56,4.10
2022,09,16,00,57,2.40
2022,09,16,00,58,1.60
2022,09,16,00,59,2.70
2022,09,16,01,00,0.00
2022,09,16,01,01,0.00
2022,09,16,01,02,0.00
2022,09,16,01,03,0.00
2022,09,16,01,04,0.00
2022,09,16,01,05,0.00
2022,09,16,01,06,0.00
2022,09,16,01,07,0.00
2022,09,16,01,08,0.00
2022,09,16,01,09,0.00
2022,09,16,01,10,0.00
2022,09,16,01,11,0.00
2022,09,16,01,12,0.00
2022,09,16,01,13,0.00
2022,09,16,01,14,0.00
2022,09,16,01,15,0.00
2022,09,16,01,16,0.00
2022,09,16,01,17,0.00
2022,09,16,01,18,0.00
2022,09,16,01,19,0.00
2022,09,16,01,20,0.00
2022,09,16,01,21,0.00
2022,09,16,01,22,0.00
2022,09,16,01,23,0.00
2022,09,16,01,24,0.00
2022,09,16,01,25,0.00
2022,09,16,01,26,0.00
2022,09,16,01,27,0.00
2022,09,16,01,28,0.00
2022,09,16,01,29,0.00
2022,09,16,01,30,0.00
2022,09,16,01,31,0.00
2022,09,16,01,32,0.30
2022,09,16,01,33,0.40
2022,09,16,01,34,0.00
2022,09,16,01,35,0.00
2022,09,16,01,36,0.00
2022,09,16,01,37,0.00
2022,09,16,01,38,0.00
2022,09,16,01,39,0.00
2022,09,16,01,40,4.60
2022,09,16,01,41,4.70
2022,09,16,01,42,0.90
2022,09,16,01,43,0.00
2022,09,16,01,44,0.00
2022,09,16,01,45,0.00
2022,09,16,01,46,0.00
2022,09,16,01,47,0.00
2022,09,16,01,48,0.90
2022,09,16,01,49,4.00
2022,09,16,01,50,2.60
2022,09,16,01,51,2.70
2022,09,16,01,52,0.00
2022,09,16,01,53,0.00
2022,09,16,01,54,1.40
2022,09,16,01,55,2.20
2022,09,16,01,56,2.20
2022,09,16,01,57,4.70
2022,09,16,01,58,6.00
2022,09,16,01,59,4.40
2022,09,16,02,00,1.70
2022,09,16,02,01,0.40
2022,09,16,02,02,1.00
2022,09,16,02,03,0.90
2022,09,16,02,04,1.40
2022,09,16,02,05,1.60
2022,09,16,02,06,1.50
2022,09,16,02,07,3.80
2022,09,16,02,08,3.30
2022,09,16,02,09,2.40
2022,09,16,02,10,2.80
2022,09,16,02,11,2.50
2022,09,16,02,12,0.00
2022,09,16,02,13,0.00
2022,09,16,02,14,0.00
2022,09,16,02,15,0.00
2022,09,16,02,16,0.00
2022,09,16,02,17,0.00
2022,09,16,02,18,0.00
2022,09,16,02,19,0.00
2022,09,16,02,20,0.90
2022,09,16,02,21,4.70
2022,09,16,02,22,0.00
2022,09,16,02,23,0.00
2022,09,16,02,24,0.60
2022,09,16,02,25,0.00
2022,09,16,02,26,0.00
2022,09,16,02,27,0.00
2022,09,16,02,28,0.00
2022,09,16,02,29,0.00
2022,09,16,02,30,0.00
2022,09,16,02,31,0.00
2022,09,16,02,32,0.60
2022,09,16,02,33,2.90
2022,09,16,02,34,0.00
2022,09,16,02,35,0.40
2022,09,16,02,36,8.60
2022,09,16,02,37,2.50
2022,09,16,02,38,0.00
2022,09,16,02,39,0.00
2022,09,16,02,40,1.80
2022,09,16,02,41,6.20
2022,09,16,02,42,4.40
2022,09,16,02,43,4.60
2022,09,16,02,44,1.10
2022,09,16,02,45,2.70
2022,09,16,02,46,5.00
2022,09,16,02,47,6.10
2022,09,16,02,48,5.50
2022,09,16,02,49,3.10
2022,09,16,02,50,2.40
2022,09,16,02,51,6.30
2022,09,16,02,52,1.20
2022,09,16,02,53,3.70
2022,09,16,02,54,0.00
2022,09,16,02,55,2.10
2022,09,16,02,56,2.80
2022,09,16,02,57,3.30
2022,09,16,02,58,3.60
2022,09,16,02,59,1.40
2022,09,16,03,00,0.80
2022,09,16,03,01,0.00
2022,09,16,03,02,0.00
2022,09,16,03,03,0.00
2022,09,16,03,04,0.00
2022,09,16,03,05,0.00
2022,09,16,03,06,0.00
2022,09,16,03,07,0.00
2022,09,16,03,08,0.00
2022,09,16,03,09,0.00
2022,09,16,03,10,0.00
2022,09,16,03,11,0.00
2022,09,16,03,12,1.90
2022,09,16,03,13,1.90
2022,09,16,03,14,1.60
2022,09,16,03,15,0.00
2022,09,16,03,16,0.00
2022,09,16,03,17,0.30
2022,09,16,03,18,0.00
2022,09,16,03,19,0.00
2022,09,16,03,20,2.90
2022,09,16,03,21,1.90
2022,09,16,03,22,0.00
2022,09,16,03,23,0.00
2022,09,16,03,24,0.00
2022,09,16,03,25,0.30
2022,09,16,03,26,0.40
2022,09,16,03,27,0.00
2022,09,16,03,28,0.00
2022,09,16,03,29,0.00
2022,09,16,03,30,0.00
2022,09,16,03,31,0.00
2022,09,16,03,32,2.40
2022,09,16,03,33,0.30
2022,09,16,03,34,0.10
2022,09,16,03,35,1.10
2022,09,16,03,36,0.00
2022,09,16,03,37,0.00
2022,09,16,03,38,0.00
2022,09,16,03,39,0.00
2022,09,16,03,40,0.00
2022,09,16,03,41,0.00
2022,09,16,03,42,0.00
2022,09,16,03,43,0.00
2022,09,16,03,44,0.00
2022,09,16,03,45,0.00
2022,09,16,03,46,0.00
2022,09,16,03,47,0.00
2022,09,16,03,48,0.00
2022,09,16,03,49,0.20
2022,09,16,03,50,0.10
2022,09,16,03,51,0.00
2022,09,16,03,52,0.00
2022,09,16,03,53,0.00
2022,09,16,03,54,0.00
2022,09,16,03,55,0.00
2022,09,16,03,56,0.00
2022,09,16,03,57,0.00
2022,09,16,03,58,0.00
2022,09,16,03,59,0.00
2022,09,16,04,00,0.30
2022,09,16,04,01,0.00
2022,09,16,04,02,0.00
2022,09,16,04,03,0.00
2022,09,16,04,04,0.00
2022,09,16,04,05,0.00
2022,09,16,04,06,0.00
2022,09,16,04,07,0.00
2022,09,16,04,08,0.00
2022,09,16,04,09,0.00
2022,09,16,04,10,1.50
2022,09,16,04,11,3.60
2022,09,16,04,12,0.40
2022,09,16,04,13,6.20
2022,09,16,04,14,1.30
2022,09,16,04,15,4.20
2022,09,16,04,16,4.60
2022,09,16,04,17,1.70
2022,09,16,04,18,5.30
2022,09,16,04,19,7.00
2022,09,16,04,20,4.80
2022,09,16,04,21,7.50
2022,09,16,04,22,3.50
2022,09,16,04,23,0.00
2022,09,16,04,24,3.80
2022,09,16,04,25,0.80
2022,09,16,04,26,0.00
2022,09,16,04,27,0.00
2022,09,16,04,28,0.00
2022,09,16,04,29,0.00
2022,09,16,04,30,0.00
2022,09,16,04,31,0.00
2022,09,16,04,32,0.00
2022,09,16,04,33,0.00
2022,09,16,04,34,0.00
2022,09,16,04,35,1.40
2022,09,16,04,36,3.70
2022,09,16,04,37,3.90
2022,09,16,04,38,2.10
2022,09,16,04,39,0.10
2022,09,16,04,40,0.00
2022,09,16,04,41,0.00
2022,09,16,04,42,2.90
2022,09,16,04,43,0.50
2022,09,16,04,44,0.00
2022,09,16,04,45,0.20
2022,09,16,04,46,1.30
2022,09,16,04,47,0.00
2022,09,16,04,48,0.00
2022,09,16,04,49,0.00
2022,09,16,04,50,0.00
2022,09,16,04,51,0.00
2022,09,16,04,52,0.00
2022,09,16,04,53,0.00
2022,09,16,04,54,0.00
2022,09,16,04,55,1.30
2022,09,16,04,56,0.60
2022,09,16,04,57,0.00
2022,09,16,04,58,0.00
2022,09,16,04,59,0.00
2022,09,16,05,00,0.00
2022,09,16,05,01,0.00
2022,09,16,05,02,0.00
2022,09,16,05,03,0.00
2022,09,16,05,04,0.00
2022,09,16,05,05,0.00
2022,09,16,05,06,0.30
2022,09,16,05,07,0.00
2022,09,16,05,08,2.20
2022,09,16,05,09,0.80
2022,09,16,05,10,0.00
2022,09,16,05,11,0.00
2022,09,16,05,12,0.00
2022,09,16,05,13,0.00
2022,09,16,05,14,0.00
2022,09,16,05,15,2.10
2022,09,16,05,16,1.70
2022,09,16,05,17,0.00
2022,09,16,05,18,0.00
2022,09,16,05,19,0.00
2022,09,16,05,20,0.00
2022,09,16,05,21,0.00
2022,09,16,05,22,0.00
2022,09,16,05,23,0.00
2022,09,16,05,24,0.00
2022,09,16,05,25,0.00
2022,09,16,05,26,0.00
2022,09,16,05,27,0.00
2022,09,16,05,28,0.00
2022,09,16,05,29,0.00
2022,09,16,05,30,1.50
2022,09,16,05,31,0.00
2022,09,16,05,32,0.00
2022,09,16,05,33,0.90
2022,09,16,05,34,0.30
2022,09,16,05,35,3.20
2022,09,16,05,36,0.00
2022,09,16,05,37,0.00
2022,09,16,05,38,0.00
2022,09,16,05,39,0.00
2022,09,16,05,40,0.00
2022,09,16,05,41,0.00
2022,09,16,05,42,0.00
2022,09,16,05,43,0.00
2022,09,16,05,44,0.20
2022,09,16,05,45,0.80
2022,09,16,05,46,0.00
2022,09,16,05,47,1.40
2022,09,16,05,48,1.90
2022,09,16,05,49,0.00
2022,09,16,05,50,0.00
2022,09,16,05,51,0.00
2022,09,16,05,52,0.00
2022,09,16,05,53,0.00
2022,09,16,05,54,0.30
2022,09,16,05,55,0.00
2022,09,16,05,56,0.00
2022,09,16,05,57,0.00
2022,09,16,05,58,0.00
2022,09,16,05,59,1.60
2022,09,16,06,00,0.40
2022,09,16,06,01,0.00
2022,09,16,06,02,3.00
2022,09,16,06,03,0.60
2022,09,16,06,04,0.00
2022,09,16,06,05,0.00
2022,09,16,06,06,0.00
2022,09,16,06,07,0.00
2022,09,16,06,08,4.30
2022,09,16,06,09,0.30
2022,09,16,06,10,0.00
2022,09,16,06,11,0.00
2022,09,16,06,12,0.00
2022,09,16,06,13,0.00
2022,09,16,06,14,0.00
2022,09,16,06,15,0.00
2022,09,16,06,16,0.00
2022,09,16,06,17,0.00
2022,09,16,06,18,0.50
2022,09,16,06,19,0.20
2022,09,16,06,20,0.00
2022,09,16,06,21,0.00
2022,09,16,06,22,0.00
2022,09,16,06,23,0.00
2022,09,16,06,24,0.00
2022,09,16,06,25,0.80
2022,09,16,06,26,2.90
2022,09,16,06,27,0.00
2022,09,16,06,28,0.00
2022,09,16,06,29,0.00
2022,09,16,06,30,0.00
2022,09,16,06,31,0.00
2022,09,16,06,32,0.00
2022,09,16,06,33,0.00
2022,09,16,06,34,0.00
2022,09,16,06,35,0.00
2022,09,16,06,36,0.00
2022,09,16,06,37,0.00
2022,09,16,06,38,0.00
2022,09,16,06,39,0.00
2022,09,16,06,40,0.00
2022,09,16,06,41,0.00
2022,09,16,06,42,0.00
2022,09,16,06,43,0.00
2022,09,16,06,44,0.00
2022,09,16,06,45,0.00
2022,09,16,06,46,0.00
2022,09,16,06,47,0.00
2022,09,16,06,48,2.40
2022,09,16,06,49,0.00
2022,09,16,06,50,0.00
2022,09,16,06,51,0.00
2022,09,16,06,52,0.00
2022,09,16,06,53,0.00
2022,09,16,06,54,3.50
2022,09,16,06,55,1.50
2022,09,16,06,56,0.00
2022,09,16,06,57,0.80
2022,09,16,06,58,2.80
2022,09,16,06,59,3.10
2022,09,16,07,00,1.40
2022,09,16,07,01,2.90
2022,09,16,07,02,0.00
2022,09,16,07,03,0.00
2022,09,16,07,04,2.20
2022,09,16,07,05,3.00
2022,09,16,07,06,0.50
2022,09,16,07,07,0.00
2022,09,16,07,08,0.00
2022,09,16,07,09,0.00
2022,09,16,07,10,4.80
2022,09,16,07,11,7.70
2022,09,16,07,12,5.60
2022,09,16,07,13,1.20
2022,09,16,07,14,4.00
2022,09,16,07,15,1.70
2022,09,16,07,16,0.00
2022,09,16,07,17,0.80
2022,09,16,07,18,0.00
2022,09,16,07,19,0.00
2022,09,16,07,20,0.00
2022,09,16,07,21,0.00
2022,09,16,07,22,0.00
2022,09,16,07,23,1.90
2022,09,16,07,24,5.00
2022,09,16,07,25,0.30
2022,09,16,07,26,0.40
2022,09,16,07,27,0.00
2022,09,16,07,28,0.00
2022,09,16,07,29,0.00
2022,09,16,07,30,1.40
2022,09,16,07,31,0.00
2022,09,16,07,32,0.00
2022,09,16,07,33,0.10
2022,09,16,07,34,0.00
2022,09,16,07,35,0.40
2022,09,16,07,36,1.40
2022,09,16,07,37,0.00
2022,09,16,07,38,0.00
2022,09,16,07,39,0.00
2022,09,16,07,40,0.40
2022,09,16,07,41,3.00
2022,09,16,07,42,7.80
2022,09,16,07,43,7.80
2022,09,16,07,44,4.10
2022,09,16,07,45,3.90
2022,09,16,07,46,4.90
2022,09,16,07,47,5.30
2022,09,16,07,48,6.70
2022,09,16,07,49,3.70
2022,09,16,07,50,3.10
2022,09,16,07,51,7.20
2022,09,16,07,52,5.10
2022,09,16,07,53,4.10
2022,09,16,07,54,2.30
2022,09,16,07,55,4.00
2022,09,16,07,56,1.50
2022,09,16,07,57,0.60
2022,09,16,07,58,2.60
2022,09,16,07,59,5.20
2022,09,16,08,00,6.40
2022,09,16,08,01,7.60
2022,09,16,08,02,6.10
2022,09,16,08,03,6.70
2022,09,16,08,04,5.60
2022,09,16,08,05,6.90
2022,09,16,08,06,8.80
2022,09,16,08,07,9.20
2022,09,16,08,08,12.00
2022,09,16,08,09,8.10
2022,09,16,08,10,8.20
2022,09,16,08,11,3.80
2022,09,16,08,12,4.30
2022,09,16,08,13,7.60
2022,09,16,08,14,7.00
2022,09,16,08,15,4.90
2022,09,16,08,16,6.90
2022,09,16,08,17,11.00
2022,09,16,08,18,2.30
2022,09,16,08,19,0.40
2022,09,16,08,20,2.90
2022,09,16,08,21,5.40
2022,09,16,08,22,8.90
2022,09,16,08,23,6.40
2022,09,16,08,24,4.20
2022,09,16,08,25,5.60
2022,09,16,08,26,3.00
2022,09,16,08,27,1.10
2022,09,16,08,28,5.50
2022,09,16,08,29,2.60
2022,09,16,08,30,0.00
2022,09,16,08,31,3.70
2022,09,16,08,32,5.00
2022,09,16,08,33,2.90
2022,09,16,08,34,5.20
2022,09,16,08,35,4.10
2022,09,16,08,36,7.30
2022,09,16,08,37,4.50
2022,09,16,08,38,3.90
2022,09,16,08,39,7.10
2022,09,16,08,40,1.40
2022,09,16,08,41,3.30
2022,09,16,08,42,0.40
2022,09,16,08,43,3.10
2022,09,16,08,44,4.10
2022,09,16,08,45,4.50
2022,09,16,08,46,3.90
2022,09,16,08,47,3.60
2022,09,16,08,48,7.10
2022,09,16,08,49,5.90
2022,09,16,08,50,5.40
2022,09,16,08,51,2.80
2022,09,16,08,52,4.10
2022,09,16,08,53,6.60
2022,09,16,08,54,5.20
2022,09,16,08,55,7.00
2022,09,16,08,56,2.70
2022,09,16,08,57,3.80
2022,09,16,08,58,6.80
2022,09,16,08,59,5.40
2022,09,16,09,00,4.90
2022,09,16,09,01,0.00
2022,09,16,09,02,0.90
2022,09,16,09,03,0.80
2022,09,16,09,04,1.80
2022,09,16,09,05,6.60
2022,09,16,09,06,8.30
2022,09,16,09,07,8.00
2022,09,16,09,08,1.50
2022,09,16,09,09,6.40
2022,09,16,09,10,5.20
2022,09,16,09,11,2.90
2022,09,16,09,12,4.20
2022,09,16,09,13,1.20
2022,09,16,09,14,0.00
2022,09,16,09,15,0.90
2022,09,16,09,16,5.10
2022,09,16,09,17,4.70
2022,09,16,09,18,5.90
2022,09,16,09,19,5.60
2022,09,16,09,20,9.70
2022,09,16,09,21,2.80
2022,09,16,09,22,4.70
2022,09,16,09,23,3.60
2022,09,16,09,24,8.50
2022,09,16,09,25,6.10
2022,09,16,09,26,8.20
2022,09,16,09,27,3.70
2022,09,16,09,28,5.50
2022,09,16,09,29,0.00
2022,09,16,09,30,3.90
2022,09,16,09,31,7.60
2022,09,16,09,32,7.30
2022,09,16,09,33,5.10
2022,09,16,09,34,0.10
2022,09,16,09,35,0.80
2022,09,16,09,36,0.00
2022,09,16,09,37,0.20
2022,09,16,09,38,0.00
2022,09,16,09,39,1.60
2022,09,16,09,40,5.80
2022,09,16,09,41,6.60
2022,09,16,09,42,3.80
2022,09,16,09,43,4.70
2022,09,16,09,44,4.40
2022,09,16,09,45,4.50
2022,09,16,09,46,4.50
2022,09,16,09,47,2.80
2022,09,16,09,48,6.20
2022,09,16,09,49,5.90
2022,09,16,09,50,6.30
2022,09,16,09,51,2.70
2022,09,16,09,52,3.30
2022,09,16,09,53,5.80
2022,09,16,09,54,6.80
2022,09,16,09,55,6.60
2022,09,16,09,56,4.70
2022,09,16,09,57,2.90
2022,09,16,09,58,4.20
2022,09,16,09,59,5.10
2022,09,16,10,00,7.00
2022,09,16,10,01,7.80
2022,09,16,10,02,4.60
2022,09,16,10,03,3.10
2022,09,16,10,04,5.00
2022,09,16,10,05,3.90
2022,09,16,10,06,7.20
2022,09,16,10,07,7.20
2022,09,16,10,08,2.20
2022,09,16,10,09,6.80
2022,09,16,10,10,9.50
2022,09,16,10,11,2.90
2022,09,16,10,12,5.80
2022,09,16,10,13,6.80
2022,09,16,10,14,8.00
2022,09,16,10,15,3.10
2022,09,16,10,16,8.10
2022,09,16,10,17,8.60
2022,09,16,10,18,2.30
2022,09,16,10,19,3.40
2022,09,16,10,20,9.70
2022,09,16,10,21,6.30
2022,09,16,10,22,3.30
2022,09,16,10,23,4.00
2022,09,16,10,24,3.00
2022,09,16,10,25,5.30
2022,09,16,10,26,2.10
2022,09,16,10,27,0.00
2022,09,16,10,28,0.00
2022,09,16,10,29,4.60
2022,09,16,10,30,8.60
2022,09,16,10,31,11.00
2022,09,16,10,32,8.10
2022,09,16,10,33,4.50
2022,09,16,10,34,5.60
2022,09,16,10,35,2.30
2022,09,16,10,36,9.70
2022,09,16,10,37,14.80
2022,09,16,10,38,8.40
2022,09,16,10,39,10.10
2022,09,16,10,40,13.50
2022,09,16,10,41,7.90
2022,09,16,10,42,5.30
2022,09,16,10,43,7.40
2022,09,16,10,44,9.00
2022,09,16,10,45,10.90
2022,09,16,10,46,10.00
2022,09,16,10,47,0.80
2022,09,16,10,48,9.30
2022,09,16,10,49,11.10
2022,09,16,10,50,17.50
2022,09,16,10,51,20.00
2022,09,16,10,52,9.50
2022,09,16,10,53,9.10
2022,09,16,10,54,14.90
2022,09,16,10,55,16.10
2022,09,16,10,56,13.30
2022,09,16,10,57,11.40
2022,09,16,10,58,8.30
2022,09,16,10,59,19.40
2022,09,16,11,00,15.90
2022,09,16,11,01,7.80
2022,09,16,11,02,7.50
2022,09,16,11,03,16.60
2022,09,16,11,04,12.40
2022,09,16,11,05,10.30
2022,09,16,11,06,7.40
2022,09,16,11,07,12.00
2022,09,16,11,08,12.30
2022,09,16,11,09,18.60
2022,09,16,11,10,5.20
2022,09,16,11,11,8.20
2022,09,16,11,12,8.00
2022,09,16,11,13,1.20
2022,09,16,11,14,1.60
2022,09,16,11,15,7.00
2022,09,16,11,16,10.60
2022,09,16,11,17,11.00
2022,09,16,11,18,10.60
2022,09,16,11,19,13.70
2022,09,16,11,20,18.20
2022,09,16,11,21,9.10
2022,09,16,11,22,12.60
2022,09,16,11,23,12.10
2022,09,16,11,24,15.80
2022,09,16,11,25,19.10
2022,09,16,11,26,17.00
2022,09,16,11,27,7.70
2022,09,16,11,28,6.90
2022,09,16,11,29,8.00
2022,09,16,11,30,7.20
2022,09,16,11,31,12.60
2022,09,16,11,32,19.00
2022,09,16,11,33,13.60
2022,09,16,11,34,20.00
2022,09,16,11,35,21.70
2022,09,16,11,36,19.00
2022,09,16,11,37,19.30
2022,09,16,11,38,11.30
2022,09,16,11,39,14.10
2022,09,16,11,40,19.30
2022,09,16,11,41,7.60
2022,09,16,11,42,9.50
2022,09,16,11,43,13.30
2022,09,16,11,44,8.60
2022,09,16,11,45,13.40
2022,09,16,11,46,17.70
2022,09,16,11,47,15.20
2022,09,16,11,48,16.10
2022,09,16,11,49,15.60
2022,09,16,11,50,20.00
2022,09,16,11,51,21.30
2022,09,16,11,52,16.90
2022,09,16,11,53,14.20
2022,09,16,11,54,16.00
2022,09,16,11,55,11.90
2022,09,16,11,56,10.80
2022,09,16,11,57,6.50
2022,09,16,11,58,7.20
2022,09,16,11,59,9.80
2022,09,16,12,00,16.80
2022,09,16,12,01,10.50
2022,09,16,12,02,19.20
2022,09,16,12,03,8.70
2022,09,16,12,04,7.50
2022,09,16,12,05,11.80
2022,09,16,12,06,16.90
2022,09,16,12,07,18.20
2022,09,16,12,08,15.70
2022,09,16,12,09,18.90
2022,09,16,12,10,8.00
2022,09,16,12,11,18.50
2022,09,16,12,12,16.20
2022,09,16,12,13,16.20
2022,09,16,12,14,13.40
2022,09,16,12,15,9.30
2022,09,16,12,16,17.30
2022,09,16,12,17,6.50
2022,09,16,12,18,14.00
2022,09,16,12,19,10.40
2022,09,16,12,20,7.80
2022,09,16,12,21,12.10
2022,09,16,12,22,11.10
2022,09,16,12,23,11.70
2022,09,16,12,24,8.80
2022,09,16,12,25,11.40
2022,09,16,12,26,15.90
2022,09,16,12,27,9.50
2022,09,16,12,28,2.30
2022,09,16,12,29,10.30
2022,09,16,12,30,16.00
2022,09,16,12,31,18.40
2022,09,16,12,32,22.40
2022,09,16,12,33,21.80
2022,09,16,12,34,14.50
2022,09,16,12,35,10.50
2022,09,16,12,36,12.40
2022,09,16,12,37,22.60
2022,09,16,12,38,16.40
2022,09,16,12,39,11.90
2022,09,16,12,40,8.10
2022,09,16,12,41,17.80
2022,09,16,12,42,24.10
2022,09,16,12,43,20.00
2022,09,16,12,44,21.70
2022,09,16,12,45,16.30
2022,09,16,12,46,12.30
2022,09,16,12,47,10.70
2022,09,16,12,48,7.90
2022,09,16,12,49,8.10
2022,09,16,12,50,6.90
2022,09,16,12,51,7.00
2022,09,16,12,52,9.70
2022,09,16,12,53,11.40
2022,09,16,12,54,15.60
2022,09,16,12,55,8.20
2022,09,16,12,56,11.00
2022,09,16,12,57,13.90
2022,09,16,12,58,16.40
2022,09,16,12,59,13.60
2022,09,16,13,00,9.40
2022,09,16,13,01,10.50
2022,09,16,13,02,11.50
2022,09,16,13,03,6.30
2022,09,16,13,04,11.90
2022,09,16,13,05,14.00
2022,09,16,13,06,10.70
2022,09,16,13,07,17.40
2022,09,16,13,08,20.20
2022,09,16,13,09,23.90
2022,09,16,13,10,22.00
2022,09,16,13,11,20.70
2022,09,16,13,12,13.00
2022,09,16,13,13,18.80
2022,09,16,13,14,15.60
2022,09,16,13,33,6.80
2022,09,16,13,34,16.50
2022,09,16,13,35,11.60
2022,09,16,13,36,7.60
2022,09,16,13,37,6.90
2022,09,16,13,38,15.20
2022,09,16,13,39,18.80
2022,09,16,13,40,17.40
2022,09,16,13,41,32.00
2022,09,16,13,42,29.30
2022,09,16,13,43,31.70
2022,09,16,13,44,11.20
2022,09,16,13,45,23.00
2022,09,16,13,46,14.40
2022,09,16,13,47,8.20
2022,09,16,13,48,17.20
2022,09,16,13,49,16.70
2022,09,16,13,50,11.50
2022,09,16,13,51,21.90
2022,09,16,13,52,12.30
2022,09,16,13,53,10.70
2022,09,16,13,54,21.40
2022,09,16,13,55,12.10
2022,09,16,13,56,13.30
2022,09,16,13,57,15.30
2022,09,16,13,58,9.20
2022,09,16,13,59,10.30
2022,09,16,14,00,17.20
2022,09,16,14,01,24.20
2022,09,16,14,02,19.00
2022,09,16,14,03,21.50
2022,09,16,14,04,18.30
2022,09,16,14,05,14.70
2022,09,16,14,06,10.70
2022,09,16,14,07,18.60
2022,09,16,14,08,12.60
2022,09,16,14,09,6.50
2022,09,16,14,10,13.90
2022,09,16,14,11,11.80
2022,09,16,14,12,7.50
2022,09,16,14,13,6.50
2022,09,16,14,14,9.50
2022,09,16,14,15,11.40
2022,09,16,14,16,16.10
2022,09,16,14,17,19.60
2022,09,16,14,18,19.20
2022,09,16,14,19,14.90
2022,09,16,14,20,15.60
2022,09,16,14,21,17.50
2022,09,16,14,22,6.00
2022,09,16,14,23,18.20
2022,09,16,14,24,16.90
2022,09,16,14,25,14.00
2022,09,16,14,26,15.20
2022,09,16,14,27,8.00
2022,09,16,14,28,9.90
2022,09,16,14,29,17.70
2022,09,16,14,30,14.50
2022,09,16,14,31,12.00
2022,09,16,14,32,12.80
2022,09,16,14,33,15.90
2022,09,16,14,34,18.90
2022,09,16,14,35,16.90
2022,09,16,14,36,17.90
2022,09,16,14,37,15.90
2022,09,16,14,38,13.10
2022,09,16,14,39,12.80
2022,09,16,14,40,10.70
2022,09,16,14,41,7.50
2022,09,16,14,42,6.70
2022,09,16,14,43,9.80
2022,09,16,14,44,6.60
2022,09,16,14,45,7.90
2022,09,16,14,46,2.70
2022,09,16,14,47,17.20
2022,09,16,14,48,23.90
2022,09,16,14,49,10.80
2022,09,16,14,50,11.60
2022,09,16,14,51,21.20
2022,09,16,14,52,8.60
2022,09,16,14,53,4.30
2022,09,16,14,54,11.20
2022,09,16,14,55,15.30
2022,09,16,14,56,12.80
2022,09,16,14,57,12.30
2022,09,16,14,58,10.50
2022,09,16,14,59,13.90
2022,09,16,15,00,12.50
2022,09,16,15,01,13.50
2022,09,16,15,02,16.50
2022,09,16,15,03,15.40
2022,09,16,15,04,21.00
2022,09,16,15,05,17.30
2022,09,16,15,06,18.60
2022,09,16,15,07,18.90
2022,09,16,15,08,18.10
2022,09,16,15,09,17.50
2022,09,16,15,10,16.00
2022,09,16,15,11,13.80
2022,09,16,15,12,10.70
2022,09,16,15,13,8.10
2022,09,16,15,14,11.50
2022,09,16,15,15,10.30
2022,09,16,15,16,2.80
2022,09,16,15,17,15.90
2022,09,16,15,18,6.00
2022,09,16,15,19,6.50
2022,09,16,15,20,7.20
2022,09,16,15,21,7.80
2022,09,16,15,22,8.00
2022,09,16,15,23,7.20
2022,09,16,15,24,10.00
2022,09,16,15,25,5.80
2022,09,16,15,26,10.60
2022,09,16,15,27,20.70
2022,09,16,15,28,13.70
2022,09,16,15,29,15.20
2022,09,16,15,30,12.30
2022,09,16,15,31,14.30
2022,09,16,15,32,13.30
2022,09,16,15,33,12.70
2022,09,16,15,34,9.90
2022,09,16,15,35,16.40
2022,09,16,15,36,7.50
2022,09,16,15,37,2.60
2022,09,16,15,38,6.00
2022,09,16,15,39,4.00
2022,09,16,15,40,12.70
2022,09,16,15,41,7.30
2022,09,16,15,42,13.10
2022,09,16,15,43,13.90
2022,09,16,15,44,6.90
2022,09,16,15,45,15.70
2022,09,16,15,46,10.50
2022,09,16,15,47,8.30
2022,09,16,15,48,8.50
2022,09,16,15,49,12.60
2022,09,16,15,50,8.80
2022,09,16,15,51,8.50
2022,09,16,15,52,7.10
2022,09,16,15,53,11.70
2022,09,16,15,54,7.60
2022,09,16,15,55,7.30
2022,09,16,15,56,18.00
2022,09,16,15,57,13.90
2022,09,16,15,58,8.60
2022,09,16,15,59,1.90
2022,09,16,16,00,7.90
2022,09,16,16,01,20.70
2022,09,16,16,02,22.00
2022,09,16,16,03,17.80
2022,09,16,16,04,13.80
2022,09,16,16,05,19.50
2022,09,16,16,06,8.00
2022,09,16,16,07,8.40
2022,09,16,16,08,12.10
2022,09,16,16,09,8.80
2022,09,16,16,10,18.00
2022,09,16,16,11,15.60
2022,09,16,16,12,15.50
2022,09,16,16,13,18.50
2022,09,16,16,14,21.10
2022,09,16,16,15,17.70
2022,09,16,16,16,13.60
2022,09,16,16,17,12.50
2022,09,16,16,18,13.70
2022,09,16,16,19,18.60
2022,09,16,16,20,14.40
2022,09,16,16,21,13.90
2022,09,16,16,22,11.80
2022,09,16,16,23,10.80
2022,09,16,16,24,9.40
2022,09,16,16,25,23.20
2022,09,16,16,26,20.40
2022,09,16,16,27,10.30
2022,09,16,16,28,18.10
2022,09,16,16,29,8.30
2022,09,16,16,30,5.60
2022,09,16,16,31,6.50
2022,09,16,16,32,13.70
2022,09,16,16,33,18.80
2022,09,16,16,34,11.70
2022,09,16,16,35,5.00
2022,09,16,16,36,6.60
2022,09,16,16,37,5.30
2022,09,16,16,38,5.30
2022,09,16,16,39,13.50
2022,09,16,16,40,5.20
2022,09,16,16,41,8.00
2022,09,16,16,42,5.60
2022,09,16,16,43,9.10
2022,09,16,16,44,2.60
2022,09,16,16,45,2.40
2022,09,16,16,46,5.10
2022,09,16,16,47,2.20
2022,09,16,16,48,4.10
2022,09,16,16,49,6.10
2022,09,16,16,50,5.00
2022,09,16,16,51,7.00
2022,09,16,16,52,7.10
2022,09,16,16,53,3.70
2022,09,16,16,54,0.00
2022,09,16,16,55,0.00
2022,09,16,16,56,3.80
2022,09,16,16,57,10.00
2022,09,16,16,58,8.60
2022,09,16,16,59,2.90
2022,09,16,17,00,2.10
2022,09,16,17,01,7.90
2022,09,16,17,02,5.50
2022,09,16,17,03,8.30
2022,09,16,17,04,4.20
2022,09,16,17,05,0.20
2022,09,16,17,06,3.20
2022,09,16,17,07,6.80
2022,09,16,17,08,11.60
2022,09,16,17,09,14.40
2022,09,16,17,10,9.00
2022,09,16,17,11,12.20
2022,09,16,17,12,1.20
2022,09,16,17,13,13.80
2022,09,16,17,14,4.10
2022,09,16,17,15,9.70
2022,09,16,17,16,8.50
2022,09,16,17,17,1.20
2022,09,16,17,18,9.20
2022,09,16,17,19,4.80
2022,09,16,17,20,5.60
2022,09,16,17,21,4.50
2022,09,16,17,22,5.50
2022,09,16,17,23,3.90
2022,09,16,17,24,9.30
2022,09,16,17,25,1.50
2022,09,16,17,26,3.40
2022,09,16,17,27,6.70
2022,09,16,17,28,9.80
2022,09,16,17,29,8.20
2022,09,16,17,30,4.30
2022,09,16,17,31,8.00
2022,09,16,17,32,6.50
2022,09,16,17,33,3.40
2022,09,16,17,34,3.20
2022,09,16,17,35,0.00
2022,09,16,17,36,5.80
2022,09,16,17,37,5.90
2022,09,16,17,38,9.40
2022,09,16,17,39,8.20
2022,09,16,17,40,4.10
2022,09,16,17,41,11.80
2022,09,16,17,42,5.40
2022,09,16,17,43,1.10
2022,09,16,17,44,4.10
2022,09,16,17,45,6.30
2022,09,16,17,46,1.50
2022,09,16,17,47,8.10
2022,09,16,17,48,1.60
2022,09,16,17,49,0.00
2022,09,16,17,50,4.00
2022,09,16,17,51,7.20
2022,09,16,17,52,6.90
2022,09,16,17,53,5.80
2022,09,16,17,54,4.50
2022,09,16,17,55,4.70
2022,09,16,17,56,13.00
2022,09,16,17,57,13.20
2022,09,16,17,58,5.10
2022,09,16,17,59,5.90
2022,09,16,18,00,4.90
2022,09,16,18,01,12.30
2022,09,16,18,02,2.20
2022,09,16,18,03,0.80
2022,09,16,18,04,5.60
2022,09,16,18,05,4.50
2022,09,16,18,06,6.00
2022,09,16,18,07,3.80
2022,09,16,18,08,2.90
2022,09,16,18,09,6.20
2022,09,16,18,10,0.50
2022,09,16,18,11,3.80
2022,09,16,18,12,7.20
2022,09,16,18,13,5.10